�N����,�����b,�ŏ������i�x�j,���ϕ����i�x�j,�ő啗���i�x�j,�ŏ�����(m/s),���ϕ���(m/s),�ő啗��(m/s),�C��(���j,���x�i���j,�C��(hPa),�~�J��(mm),�~�J����(�b�j,�~�J���x(mm/h),�ő�~�J���x(mm/h),�~�Ђ傤��(hit/���u),�~�Ђ傤����(�b�j,�~�Ђ傤���x(hit/���uh),�ő�~�Ђ傤���x(hit/���uh),�q�[�^���x(���j,�q�[�^�[�d���iV),�d���d���iV),�Q�Ɠd���iV)
2011/02/01,00:00:01,016,019,022,3.1,3.6,4.7,12.3,53.5,1017.6,0.00,0,0.0,////,0.0,0,0.0,////,11.3,0.0,12.3,3.513
2011/02/01,00:10:01,345,002,014,2.2,2.4,2.6,12.3,56.5,1017.6,0.00,0,0.0,////,0.0,0,0.0,////,11.2,0.0,12.3,3.513
2011/02/01,00:20:01,343,358,014,1.6,2.3,3.3,12.1,51.6,1017.5,0.00,0,0.0,////,0.0,0,0.0,////,11.0,0.0,12.3,3.514
2011/02/01,00:30:01,010,011,013,3.2,3.4,3.6,12.2,52.6,1017.4,0.00,0,0.0,////,0.0,0,0.0,////,11.2,0.0,12.3,3.513
2011/02/01,00:40:01,338,340,342,3.5,4.0,4.4,12.2,49.5,1017.4,0.00,0,0.0,////,0.0,0,0.0,////,11.0,0.0,12.3,3.514
2011/02/01,00:50:01,000,002,003,3.6,3.8,4.0,12.3,51.3,1017.2,0.00,0,0.0,////,0.0,0,0.0,////,11.0,0.0,12.3,3.513
2011/02/01,01:00:01,344,000,017,2.5,3.0,3.4,12.4,55.4,1017.2,0.00,0,0.0,////,0.0,0,0.0,////,11.2,0.0,12.3,3.515
2011/02/01,01:10:01,343,345,350,4.7,4.9,5.1,12.4,52.0,1017.1,0.00,0,0.0,////,0.0,0,0.0,////,11.2,0.0,12.3,3.513
2011/02/01,01:20:01,343,352,002,2.1,2.3,2.5,12.5,53.4,1017.1,0.00,0,0.0,////,0.0,0,0.0,////,11.2,0.0,12.3,3.514
2011/02/01,01:30:01,337,342,351,2.1,2.7,3.2,12.3,50.9,1017.1,0.00,0,0.0,////,0.0,0,0.0,////,11.2,0.0,12.3,3.513
2011/02/01,01:40:01,354,000,006,2.5,2.7,3.0,12.5,49.8,1017.1,0.00,0,0.0,////,0.0,0,0.0,////,11.0,0.0,12.3,3.513
2011/02/01,01:50:01,020,026,035,2.0,2.2,2.6,12.4,44.6,1017.0,0.00,0,0.0,////,0.0,0,0.0,////,11.2,0.0,12.3,3.511
2011/02/01,02:00:01,354,036,091,1.1,1.8,2.4,12.4,46.1,1016.9,0.00,0,0.0,////,0.0,0,0.0,////,11.3,0.0,12.3,3.514
2011/02/01,02:10:01,012,016,022,2.8,3.0,3.2,12.5,49.4,1016.9,0.00,0,0.0,////,0.0,0,0.0,////,11.3,0.0,12.3,3.511
2011/02/01,02:20:01,339,343,346,2.1,2.3,2.5,12.4,46.9,1016.8,0.00,0,0.0,////,0.0,0,0.0,////,11.3,0.0,12.3,3.513
2011/02/01,02:30:01,006,020,029,2.0,2.3,2.7,12.4,51.7,1016.7,0.00,0,0.0,////,0.0,0,0.0,////,11.2,0.0,12.3,3.514
2011/02/01,02:40:01,350,352,354,1.1,1.3,1.5,12.4,51.6,1016.6,0.00,0,0.0,////,0.0,0,0.0,////,11.3,0.0,12.3,3.511
2011/02/01,02:50:01,008,016,021,2.3,2.6,2.9,12.3,53.2,1016.5,0.00,0,0.0,////,0.0,0,0.0,////,11.3,0.0,12.3,3.513
2011/02/01,03:00:01,352,359,002,2.1,2.3,2.5,12.4,54.9,1016.3,0.00,0,0.0,////,0.0,0,0.0,////,11.2,0.0,12.3,3.513
2011/02/01,03:10:01,015,023,033,1.8,2.2,2.5,12.5,52.1,1016.2,0.00,0,0.0,////,0.0,0,0.0,////,11.2,0.0,12.3,3.511
2011/02/01,03:20:01,358,012,021,3.0,3.1,3.1,12.5,51.2,1016.2,0.00,0,0.0,////,0.0,0,0.0,////,11.2,0.0,12.3,3.514
2011/02/01,03:30:01,010,026,044,2.6,3.0,3.3,12.3,49.9,1016.1,0.00,0,0.0,////,0.0,0,0.0,////,11.2,0.0,12.3,3.514
2011/02/01,03:40:01,005,008,011,2.1,2.3,2.4,12.3,49.6,1016.0,0.00,0,0.0,////,0.0,0,0.0,////,11.0,0.0,12.3,3.513
2011/02/01,03:50:01,017,018,020,1.9,2.3,2.8,12.4,48.4,1016.1,0.00,0,0.0,////,0.0,0,0.0,////,11.2,0.0,12.3,3.513
2011/02/01,04:00:01,352,004,011,2.8,3.0,3.1,12.5,49.2,1016.0,0.00,0,0.0,////,0.0,0,0.0,////,11.2,0.0,12.3,3.513
2011/02/01,04:10:01,019,022,025,2.2,2.4,2.6,12.4,44.9,1015.9,0.00,0,0.0,////,0.0,0,0.0,////,11.0,0.0,12.3,3.513
2011/02/01,04:20:01,027,031,035,3.4,3.6,3.8,12.2,48.3,1015.8,0.00,0,0.0,////,0.0,0,0.0,////,10.8,0.0,12.3,3.513
2011/02/01,04:30:01,045,059,072,2.4,3.3,3.9,12.3,49.7,1015.8,0.00,0,0.0,////,0.0,0,0.0,////,10.8,0.0,12.3,3.513
2011/02/01,04:40:01,022,033,039,2.7,2.8,3.0,12.2,49.5,1015.7,0.00,0,0.0,////,0.0,0,0.0,////,11.0,0.0,12.3,3.513
2011/02/01,04:50:01,359,008,015,3.3,3.6,3.9,12.3,49.4,1015.6,0.00,0,0.0,////,0.0,0,0.0,////,11.0,0.0,12.3,3.513
2011/02/01,05:00:01,001,003,007,2.7,3.8,4.6,12.3,53.0,1015.6,0.00,0,0.0,////,0.0,0,0.0,////,11.0,0.0,12.3,3.513
2011/02/01,05:10:01,009,010,011,2.4,2.6,2.7,12.4,54.9,1015.6,0.00,0,0.0,////,0.0,0,0.0,////,11.2,0.0,12.3,3.511
2011/02/01,05:20:01,354,359,008,2.1,2.5,3.0,12.5,54.2,1015.6,0.00,0,0.0,////,0.0,0,0.0,////,11.5,0.0,12.3,3.510
2011/02/01,05:30:01,323,332,341,1.2,1.5,1.8,12.6,53.8,1015.7,0.00,0,0.0,////,0.0,0,0.0,////,11.5,0.0,12.3,3.513
2011/02/01,05:40:01,358,006,011,2.2,2.5,2.8,12.7,57.3,1015.7,0.00,0,0.0,////,0.0,0,0.0,////,11.7,0.0,12.3,3.514
2011/02/01,05:50:01,356,359,003,1.8,2.3,2.6,12.5,59.2,1015.7,0.00,0,0.0,////,0.0,0,0.0,////,11.7,0.0,12.3,3.511
2011/02/01,06:00:01,358,001,007,2.6,2.7,2.8,12.5,58.2,1015.8,0.00,10,0.0,////,0.0,0,0.0,////,11.7,0.0,12.3,3.513
2011/02/01,06:10:01,005,014,025,2.1,2.3,2.6,12.7,53.5,1015.8,0.00,10,0.0,////,0.0,0,0.0,////,11.7,0.0,12.3,3.513
2011/02/01,06:20:01,357,008,015,2.9,3.6,4.1,12.9,53.2,1015.9,0.00,0,0.0,////,0.0,0,0.0,////,11.9,0.0,12.3,3.511
2011/02/01,06:30:01,013,018,022,2.4,2.6,3.0,12.8,55.9,1015.9,0.00,0,0.0,////,0.0,0,0.0,////,12.0,0.0,12.3,3.511
2011/02/01,06:40:01,356,002,006,2.7,3.1,3.6,12.9,52.9,1016.0,0.00,0,0.0,////,0.0,0,0.0,////,11.9,0.0,12.3,3.511
2011/02/01,06:50:01,008,019,036,2.7,3.4,4.0,12.9,53.7,1016.0,0.00,0,0.0,////,0.0,0,0.0,////,12.0,0.0,12.3,3.514
2011/02/01,07:00:01,342,350,002,2.1,2.4,2.6,13.1,55.3,1016.0,0.00,0,0.0,////,0.0,0,0.0,////,12.0,0.0,12.3,3.513
2011/02/01,07:10:01,008,013,017,4.0,4.1,4.3,13.2,57.8,1015.9,0.00,0,0.0,////,0.0,0,0.0,////,12.2,0.0,12.3,3.513
2011/02/01,07:20:01,330,341,001,2.5,2.8,3.4,13.1,56.1,1016.0,0.00,0,0.0,////,0.0,0,0.0,////,12.4,0.0,12.3,3.511
2011/02/01,07:30:01,351,356,359,4.6,5.0,5.6,13.1,56.9,1016.0,0.00,0,0.0,////,0.0,0,0.0,////,12.2,0.0,12.3,3.514
2011/02/01,07:40:01,359,005,014,2.8,3.2,3.4,13.2,55.7,1016.2,0.00,0,0.0,////,0.0,0,0.0,////,12.2,0.0,12.3,3.513
2011/02/01,07:50:01,357,001,007,2.0,3.3,4.4,13.3,56.0,1016.2,0.00,0,0.0,////,0.0,0,0.0,////,12.4,0.0,12.3,3.514
2011/02/01,08:00:01,012,022,029,2.7,3.3,3.7,13.3,54.9,1016.3,0.00,0,0.0,////,0.0,0,0.0,////,12.5,0.0,12.3,3.513
2011/02/01,08:10:01,351,356,002,3.2,3.6,4.4,13.4,56.9,1016.5,0.00,0,0.0,////,0.0,0,0.0,////,12.5,0.0,12.3,3.513
2011/02/01,08:20:01,338,354,010,3.6,3.9,4.5,13.4,54.6,1016.5,0.00,0,0.0,////,0.0,0,0.0,////,12.5,0.0,12.3,3.511
2011/02/01,08:30:01,001,019,034,2.9,3.4,3.8,13.4,53.4,1016.6,0.00,0,0.0,////,0.0,0,0.0,////,12.9,0.0,12.3,3.514
2011/02/01,08:40:01,338,352,008,2.9,3.3,3.9,13.4,55.2,1016.6,0.00,0,0.0,////,0.0,0,0.0,////,12.7,0.0,12.3,3.523
2011/02/01,08:50:01,015,023,033,3.0,3.4,3.7,13.5,51.8,1016.8,0.00,0,0.0,////,0.0,0,0.0,////,12.9,0.0,12.3,3.514
2011/02/01,09:00:01,025,037,045,3.3,3.8,4.2,13.6,53.4,1016.8,0.00,0,0.0,////,0.0,0,0.0,////,12.9,0.0,12.3,3.513
2011/02/01,09:10:01,343,345,346,4.1,4.3,4.7,13.6,53.3,1017.0,0.00,0,0.0,////,0.0,0,0.0,////,13.1,0.0,12.3,3.514
2011/02/01,09:20:01,346,007,024,2.2,2.5,2.8,13.7,54.2,1017.1,0.00,0,0.0,////,0.0,0,0.0,////,13.2,0.0,12.3,3.511
2011/02/01,09:30:01,002,005,009,2.7,3.0,3.3,13.8,53.1,1017.2,0.00,0,0.0,////,0.0,0,0.0,////,13.6,0.0,12.3,3.513
2011/02/01,09:40:01,333,344,354,1.3,1.8,2.2,13.8,53.4,1017.3,0.00,0,0.0,////,0.0,0,0.0,////,13.4,0.0,12.3,3.513
2011/02/01,09:50:01,345,351,354,4.0,4.1,4.2,13.8,53.5,1017.4,0.00,0,0.0,////,0.0,0,0.0,////,13.4,0.0,12.3,3.514
2011/02/01,10:00:01,347,357,016,2.8,2.9,3.0,14.0,53.5,1017.5,0.00,0,0.0,////,0.0,0,0.0,////,13.9,0.0,12.3,3.513
2011/02/01,10:10:01,342,354,012,1.6,1.9,2.2,14.3,51.1,1017.6,0.00,0,0.0,////,0.0,0,0.0,////,14.8,0.0,12.3,3.513
2011/02/01,10:20:01,334,343,352,3.9,4.4,4.9,14.4,52.1,1017.6,0.00,0,0.0,////,0.0,0,0.0,////,15.3,0.0,12.3,3.513
2011/02/01,10:30:01,347,357,005,4.7,4.9,5.0,14.6,53.4,1017.6,0.00,0,0.0,////,0.0,0,0.0,////,15.5,0.0,12.3,3.513
2011/02/01,10:40:01,349,355,000,2.0,2.4,2.8,14.2,52.5,1017.6,0.00,0,0.0,////,0.0,0,0.0,////,14.6,0.0,12.3,3.523
2011/02/01,10:50:01,341,348,000,4.2,4.6,5.0,14.3,51.5,1017.5,0.00,0,0.0,////,0.0,0,0.0,////,14.6,0.0,12.3,3.513
2011/02/01,11:00:01,345,349,352,5.2,5.8,6.2,14.9,51.4,1017.5,0.00,0,0.0,////,0.0,0,0.0,////,16.2,0.0,12.3,3.513
2011/02/01,11:10:01,000,002,007,3.8,4.2,4.8,14.9,53.3,1017.3,0.00,0,0.0,////,0.0,0,0.0,////,16.3,0.0,12.3,3.510
2011/02/01,11:20:01,010,011,012,5.0,5.5,5.8,15.0,51.4,1017.2,0.00,0,0.0,////,0.0,0,0.0,////,16.3,0.0,12.3,3.511
2011/02/01,11:30:01,341,355,014,2.4,2.6,3.1,15.1,47.9,1017.1,0.00,0,0.0,////,0.0,0,0.0,////,16.5,0.0,12.3,3.511
2011/02/01,11:40:01,010,013,016,4.1,4.3,4.6,15.4,50.2,1017.1,0.00,0,0.0,////,0.0,0,0.0,////,17.2,0.0,12.1,3.510
2011/02/01,11:50:01,359,005,007,2.5,2.9,3.1,15.0,50.8,1016.9,0.00,0,0.0,////,0.0,0,0.0,////,16.7,0.0,12.3,3.513
2011/02/01,12:00:01,006,012,018,1.2,1.7,2.2,14.8,51.8,1016.9,0.00,0,0.0,////,0.0,0,0.0,////,16.0,0.0,12.3,3.513
2011/02/01,12:10:01,348,355,001,4.6,4.9,5.3,14.8,53.1,1016.7,0.00,0,0.0,////,0.0,0,0.0,////,15.5,0.0,12.3,3.510
2011/02/01,12:20:01,346,353,001,1.8,2.5,3.0,14.5,54.0,1016.5,0.00,0,0.0,////,0.0,0,0.0,////,15.1,0.0,12.3,3.510
2011/02/01,12:30:01,022,030,039,1.7,1.9,2.1,14.1,56.6,1016.5,0.00,0,0.0,////,0.0,0,0.0,////,14.3,0.0,12.3,3.511
2011/02/01,12:40:01,357,007,015,2.3,2.5,2.8,14.1,57.2,1016.4,0.00,0,0.0,////,0.0,0,0.0,////,14.6,0.0,12.3,3.523
2011/02/01,12:50:01,356,001,006,2.5,2.9,3.3,14.2,57.8,1016.3,0.00,0,0.0,////,0.0,0,0.0,////,14.6,0.0,12.3,3.513
2011/02/01,13:00:01,001,005,008,3.6,3.9,4.1,14.1,54.4,1016.2,0.00,0,0.0,////,0.0,0,0.0,////,14.4,0.0,12.3,3.513
2011/02/01,13:10:01,001,005,007,3.1,3.5,3.8,14.1,55.7,1016.1,0.00,0,0.0,////,0.0,0,0.0,////,14.6,0.0,12.3,3.511
2011/02/01,13:20:01,033,037,042,2.3,2.6,3.0,14.3,53.3,1016.0,0.00,0,0.0,////,0.0,0,0.0,////,14.8,0.0,12.3,3.511
2011/02/01,13:30:01,004,013,026,4.2,4.5,4.9,14.5,53.9,1015.9,0.00,0,0.0,////,0.0,0,0.0,////,15.0,0.0,12.3,3.513
2011/02/01,13:40:01,357,013,024,3.9,4.8,6.0,14.3,55.8,1015.7,0.00,0,0.0,////,0.0,0,0.0,////,14.8,0.0,12.3,3.513
2011/02/01,13:50:01,342,345,347,2.5,2.6,2.7,14.2,57.0,1015.6,0.00,0,0.0,////,0.0,0,0.0,////,14.4,0.0,12.3,3.514
2011/02/01,14:00:01,351,353,355,2.0,2.2,2.4,14.2,57.6,1015.5,0.00,0,0.0,////,0.0,0,0.0,////,14.6,0.0,12.3,3.511
2011/02/01,14:10:01,322,326,333,1.0,1.2,1.4,14.1,56.0,1015.2,0.00,0,0.0,////,0.0,0,0.0,////,14.1,0.0,12.3,3.513
2011/02/01,14:20:01,018,026,042,4.1,4.2,4.3,13.8,59.9,1015.0,0.00,0,0.0,////,0.0,0,0.0,////,13.7,0.0,12.3,3.513
2011/02/01,14:30:01,003,031,066,1.5,1.8,2.2,13.7,59.6,1014.7,0.00,0,0.0,////,0.0,0,0.0,////,13.4,0.0,12.3,3.513
2011/02/01,14:40:01,004,020,041,1.2,1.8,2.2,13.9,57.2,1014.7,0.00,0,0.0,////,0.0,0,0.0,////,13.7,0.0,12.3,3.521
2011/02/01,14:50:01,000,014,032,2.4,3.1,3.9,14.2,56.1,1014.6,0.00,0,0.0,////,0.0,0,0.0,////,14.3,0.0,12.3,3.513
2011/02/01,15:00:01,016,018,021,3.8,4.5,5.3,14.2,58.1,1014.6,0.00,0,0.0,////,0.0,0,0.0,////,14.4,0.0,12.3,3.513
2011/02/01,15:10:01,004,015,032,2.5,2.7,2.8,14.0,56.3,1014.5,0.00,0,0.0,////,0.0,0,0.0,////,13.7,0.0,12.3,3.511
2011/02/01,15:20:01,051,053,055,2.8,3.2,3.6,14.2,56.5,1014.4,0.00,0,0.0,////,0.0,0,0.0,////,14.3,0.0,12.3,3.513
2011/02/01,15:30:01,026,028,030,2.8,3.3,3.7,14.1,56.6,1014.3,0.00,0,0.0,////,0.0,0,0.0,////,14.6,0.0,12.3,3.511
2011/02/01,15:40:01,029,032,035,2.1,2.4,2.6,14.1,57.4,1014.1,0.00,0,0.0,////,0.0,0,0.0,////,13.9,0.0,12.3,3.511
2011/02/01,15:50:01,028,042,057,2.2,2.4,2.7,14.1,55.8,1014.1,0.00,0,0.0,////,0.0,0,0.0,////,14.1,0.0,12.3,3.513
2011/02/01,16:00:01,019,025,034,3.1,4.3,5.2,14.1,56.6,1014.3,0.00,0,0.0,////,0.0,0,0.0,////,13.9,0.0,12.3,3.521
2011/02/01,16:10:01,003,010,022,4.1,4.3,4.6,14.0,56.5,1014.3,0.00,0,0.0,////,0.0,0,0.0,////,13.7,0.0,12.3,3.511
2011/02/01,16:20:01,017,023,027,4.3,4.6,4.9,14.2,55.5,1014.3,0.00,0,0.0,////,0.0,0,0.0,////,13.9,0.0,12.3,3.521
2011/02/01,16:30:01,000,041,066,2.2,2.7,3.1,14.2,57.1,1014.3,0.00,0,0.0,////,0.0,0,0.0,////,13.6,0.0,12.3,3.511
2011/02/01,16:40:01,036,038,041,4.3,4.6,4.9,14.0,55.3,1014.5,0.00,0,0.0,////,0.0,0,0.0,////,13.6,0.0,12.3,3.513
2011/02/01,16:50:01,028,033,039,2.0,2.7,3.2,14.0,55.3,1014.6,0.00,0,0.0,////,0.0,0,0.0,////,13.6,0.0,12.3,3.511
2011/02/01,17:00:01,026,043,065,2.8,3.4,3.8,14.1,57.7,1014.5,0.00,0,0.0,////,0.0,0,0.0,////,13.7,0.0,12.3,3.513
2011/02/01,17:10:01,017,033,046,2.5,2.9,3.2,14.0,55.0,1014.6,0.00,0,0.0,////,0.0,0,0.0,////,13.4,0.0,12.3,3.514
2011/02/01,17:20:01,029,031,034,3.0,3.2,3.3,13.9,55.6,1014.5,0.00,0,0.0,////,0.0,0,0.0,////,13.4,0.0,12.3,3.513
2011/02/01,17:30:01,035,043,053,3.0,3.8,4.5,13.9,56.3,1014.6,0.00,0,0.0,////,0.0,0,0.0,////,13.2,0.0,12.3,3.513
2011/02/01,17:40:01,359,021,037,2.0,2.3,2.7,13.8,57.5,1014.7,0.00,0,0.0,////,0.0,0,0.0,////,13.2,0.0,12.3,3.521
2011/02/01,17:50:01,028,031,034,3.1,3.4,3.8,13.9,54.8,1014.8,0.00,0,0.0,////,0.0,0,0.0,////,13.2,0.0,12.3,3.513
2011/02/01,18:00:01,352,013,027,2.2,2.7,3.0,13.8,55.1,1014.8,0.00,0,0.0,////,0.0,0,0.0,////,13.1,0.0,12.3,3.514
2011/02/01,18:10:01,041,045,050,2.5,2.7,2.9,13.6,56.1,1014.8,0.00,0,0.0,////,0.0,0,0.0,////,12.5,0.0,12.3,3.523
2011/02/01,18:20:01,065,067,068,1.3,1.5,1.8,13.2,58.6,1014.9,0.00,0,0.0,////,0.0,0,0.0,////,12.4,0.0,12.2,3.511
2011/02/01,18:30:01,022,045,058,2.2,2.5,2.7,13.2,58.4,1015.0,0.00,0,0.0,////,0.0,0,0.0,////,12.0,0.0,12.3,3.513
2011/02/01,18:40:01,006,017,024,0.4,0.6,0.7,13.3,57.8,1015.0,0.00,0,0.0,////,0.0,0,0.0,////,12.2,0.0,12.3,3.513
2011/02/01,18:50:01,353,004,014,1.1,1.4,1.5,13.5,58.3,1015.0,0.00,0,0.0,////,0.0,0,0.0,////,12.5,0.0,12.3,3.523
2011/02/01,19:00:01,032,035,041,1.9,2.2,2.5,13.7,57.5,1015.1,0.00,0,0.0,////,0.0,0,0.0,////,12.7,0.0,12.3,3.521
2011/02/01,19:10:01,045,057,063,0.9,1.2,1.5,13.8,55.7,1015.0,0.00,0,0.0,////,0.0,0,0.0,////,12.9,0.0,12.3,3.523
2011/02/01,19:20:01,053,061,066,0.7,0.8,1.0,13.8,56.9,1015.1,0.00,0,0.0,////,0.0,0,0.0,////,12.9,0.0,12.3,3.514
2011/02/01,19:30:01,355,055,156,0.4,0.6,0.7,13.7,56.0,1014.4,0.00,0,0.0,////,0.0,0,0.0,////,12.7,0.0,12.3,3.511
2011/02/01,19:40:01,020,038,062,1.8,2.0,2.4,13.7,57.9,1014.7,0.00,0,0.0,////,0.0,0,0.0,////,12.7,0.0,12.3,3.513
2011/02/01,19:50:01,020,021,024,2.8,3.0,3.3,13.6,58.1,1015.2,0.00,0,0.0,////,0.0,0,0.0,////,12.5,0.0,12.3,3.523
2011/02/01,20:00:01,055,058,060,1.4,1.6,1.8,13.7,57.5,1015.3,0.00,0,0.0,////,0.0,0,0.0,////,12.5,0.0,12.3,3.521
2011/02/01,20:10:01,033,040,051,1.0,1.4,1.9,13.6,57.4,1015.2,0.00,0,0.0,////,0.0,0,0.0,////,12.7,0.0,12.3,3.523
2011/02/01,20:20:01,036,040,043,2.2,2.3,2.5,13.6,57.7,1015.2,0.00,0,0.0,////,0.0,0,0.0,////,12.5,0.0,12.3,3.521
2011/02/01,20:30:01,018,029,038,1.8,2.2,2.4,13.7,56.5,1015.1,0.00,0,0.0,////,0.0,0,0.0,////,12.7,0.0,12.3,3.521
2011/02/01,20:40:01,060,082,100,1.3,1.5,2.0,13.8,57.6,1015.2,0.00,0,0.0,////,0.0,0,0.0,////,12.9,0.0,12.3,3.514
2011/02/01,20:50:01,036,067,112,0.4,0.8,1.3,13.9,58.1,1015.4,0.00,0,0.0,////,0.0,0,0.0,////,13.1,0.0,12.3,3.513
2011/02/01,21:00:01,348,352,357,0.4,0.7,1.1,13.9,59.7,1015.5,0.00,0,0.0,////,0.0,0,0.0,////,13.1,0.0,12.3,3.513
2011/02/01,21:10:01,051,056,063,1.2,1.4,1.7,13.9,58.6,1015.4,0.00,0,0.0,////,0.0,0,0.0,////,13.1,0.0,12.3,3.511
2011/02/01,21:20:01,002,021,036,1.5,1.6,1.8,13.9,56.5,1015.4,0.00,0,0.0,////,0.0,0,0.0,////,13.1,0.0,12.3,3.511
2011/02/01,21:30:01,089,097,108,0.7,0.9,1.2,14.0,55.7,1015.3,0.00,0,0.0,////,0.0,0,0.0,////,13.1,0.0,12.3,3.513
2011/02/01,21:40:01,074,080,086,1.6,1.8,2.1,14.0,54.7,1015.2,0.00,0,0.0,////,0.0,0,0.0,////,13.1,0.0,12.3,3.513
2011/02/01,21:50:01,096,107,124,1.2,1.5,1.7,13.9,54.4,1015.0,0.00,0,0.0,////,0.0,0,0.0,////,12.7,0.0,12.3,3.514
2011/02/01,22:00:01,084,095,107,0.9,1.1,1.3,13.4,57.9,1014.9,0.00,0,0.0,////,0.0,0,0.0,////,12.5,0.0,12.3,3.523
2011/02/01,22:10:01,115,119,121,2.4,2.7,3.0,12.9,58.1,1014.6,0.00,0,0.0,////,0.0,0,0.0,////,11.7,0.0,12.3,3.511
2011/02/01,22:20:01,131,145,156,0.6,0.7,0.8,13.1,58.3,1014.7,0.00,0,0.0,////,0.0,0,0.0,////,11.7,0.0,12.3,3.513
2011/02/01,22:30:01,119,125,137,2.0,2.3,2.5,12.9,57.7,1014.6,0.00,0,0.0,////,0.0,0,0.0,////,11.5,0.0,12.3,3.513
2011/02/01,22:40:01,112,118,126,1.1,1.2,1.3,12.9,58.2,1014.6,0.00,0,0.0,////,0.0,0,0.0,////,11.3,0.0,12.3,3.513
2011/02/01,22:50:01,105,126,145,1.1,1.2,1.3,13.2,58.2,1014.8,0.00,0,0.0,////,0.0,0,0.0,////,11.5,0.0,12.3,3.513
2011/02/01,23:00:01,120,124,129,0.5,0.7,1.0,13.2,58.8,1015.0,0.00,0,0.0,////,0.0,0,0.0,////,12.0,0.0,12.3,3.511
2011/02/01,23:10:01,120,123,129,2.2,2.4,2.5,13.4,57.0,1014.8,0.00,0,0.0,////,0.0,0,0.0,////,12.4,0.0,12.3,3.523
2011/02/01,23:20:01,138,146,159,1.1,1.3,1.5,13.3,57.1,1014.9,0.00,0,0.0,////,0.0,0,0.0,////,12.2,0.0,12.3,3.513
2011/02/01,23:30:01,131,145,157,1.2,1.3,1.4,13.4,56.2,1014.9,0.00,0,0.0,////,0.0,0,0.0,////,12.4,0.0,12.3,3.523
2011/02/01,23:40:01,130,134,140,0.8,1.2,1.7,13.5,55.0,1014.7,0.00,0,0.0,////,0.0,0,0.0,////,12.4,0.0,12.3,3.523
2011/02/01,23:50:01,094,105,128,1.2,1.3,1.5,13.5,55.1,1014.7,0.00,0,0.0,////,0.0,0,0.0,////,12.4,0.0,12.4,3.513
2011/02/02,00:00:01,139,141,142,0.8,1.0,1.1,13.5,55.6,1015.0,0.00,0,0.0,////,0.0,0,0.0,////,12.4,0.0,12.3,3.513
2011/02/02,00:10:01,130,133,135,1.6,1.8,2.0,13.5,56.1,1014.7,0.00,0,0.0,////,0.0,0,0.0,////,12.0,0.0,12.3,3.511
2011/02/02,00:20:01,144,158,166,0.7,0.8,0.9,13.3,56.5,1015.0,0.00,0,0.0,////,0.0,0,0.0,////,12.2,0.0,12.3,3.511
2011/02/02,00:30:01,132,140,147,0.9,1.1,1.4,13.6,56.1,1015.0,0.00,0,0.0,////,0.0,0,0.0,////,12.5,0.0,12.3,3.521
2011/02/02,00:40:01,131,141,155,1.3,1.7,2.0,13.6,56.3,1014.8,0.00,0,0.0,////,0.0,0,0.0,////,12.5,0.0,12.3,3.523
2011/02/02,00:50:01,104,116,126,1.2,1.3,1.5,13.6,55.1,1014.7,0.00,0,0.0,////,0.0,0,0.0,////,12.5,0.0,12.3,3.511
2011/02/02,01:00:01,116,125,138,1.7,2.0,2.3,13.5,54.9,1014.5,0.00,0,0.0,////,0.0,0,0.0,////,12.4,0.0,12.3,3.513
2011/02/02,01:10:01,130,145,163,1.3,1.5,1.6,13.8,54.7,1014.6,0.00,0,0.0,////,0.0,0,0.0,////,12.5,0.0,12.3,3.514
2011/02/02,01:20:01,115,130,139,1.5,1.8,2.1,13.8,55.3,1014.6,0.00,0,0.0,////,0.0,0,0.0,////,12.9,0.0,12.3,3.513
2011/02/02,01:30:01,137,152,173,0.9,1.2,1.6,13.9,53.9,1014.4,0.00,0,0.0,////,0.0,0,0.0,////,13.1,0.0,12.3,3.511
2011/02/02,01:40:01,134,136,139,1.5,1.8,2.1,14.0,53.4,1014.3,0.00,0,0.0,////,0.0,0,0.0,////,13.1,0.0,12.3,3.513
2011/02/02,01:50:01,171,174,179,1.4,1.5,1.7,14.0,53.8,1014.3,0.00,0,0.0,////,0.0,0,0.0,////,13.1,0.0,12.3,3.514
2011/02/02,02:00:01,165,169,171,2.5,2.6,2.7,14.2,51.8,1014.4,0.00,0,0.0,////,0.0,0,0.0,////,13.2,0.0,12.3,3.513
2011/02/02,02:10:01,127,134,147,0.7,0.8,0.9,14.4,51.1,1014.2,0.00,0,0.0,////,0.0,0,0.0,////,13.4,0.0,12.3,3.513
2011/02/02,02:20:01,145,152,158,1.0,1.1,1.2,14.3,52.1,1014.2,0.00,0,0.0,////,0.0,0,0.0,////,13.4,0.0,12.3,3.513
2011/02/02,02:30:01,122,128,132,2.9,3.4,3.8,14.2,52.3,1013.8,0.00,0,0.0,////,0.0,0,0.0,////,13.2,0.0,12.3,3.513
2011/02/02,02:40:01,168,174,185,1.0,1.3,1.5,14.1,52.2,1013.9,0.00,0,0.0,////,0.0,0,0.0,////,12.9,0.0,12.3,3.513
2011/02/02,02:50:01,133,137,144,1.7,1.8,1.9,14.1,51.8,1014.0,0.00,0,0.0,////,0.0,0,0.0,////,12.9,0.0,12.3,3.514
2011/02/02,03:00:01,127,129,131,1.7,2.1,2.3,14.1,52.1,1013.7,0.00,0,0.0,////,0.0,0,0.0,////,12.9,0.0,12.3,3.513
2011/02/02,03:10:01,170,183,198,0.8,1.2,1.8,14.2,51.7,1013.6,0.00,0,0.0,////,0.0,0,0.0,////,12.9,0.0,12.3,3.513
2011/02/02,03:20:01,158,160,162,1.6,1.8,1.9,14.2,52.3,1013.6,0.00,0,0.0,////,0.0,0,0.0,////,12.9,0.0,12.3,3.514
2011/02/02,03:30:01,164,168,173,1.0,1.2,1.4,14.1,52.6,1013.6,0.00,0,0.0,////,0.0,0,0.0,////,12.7,0.0,12.3,3.513
2011/02/02,03:40:01,167,169,171,1.3,1.4,1.6,13.9,53.6,1013.5,0.00,0,0.0,////,0.0,0,0.0,////,12.4,0.0,12.3,3.511
2011/02/02,03:50:01,174,176,180,1.0,1.2,1.3,13.7,54.1,1013.3,0.00,0,0.0,////,0.0,0,0.0,////,12.4,0.0,12.3,3.513
2011/02/02,04:00:01,188,194,198,1.1,1.2,1.3,13.3,55.4,1013.2,0.00,0,0.0,////,0.0,0,0.0,////,11.9,0.0,12.3,3.513
2011/02/02,04:10:01,182,185,189,1.3,1.4,1.5,13.1,56.2,1013.0,0.00,0,0.0,////,0.0,0,0.0,////,11.7,0.0,12.3,3.514
2011/02/02,04:20:01,186,189,192,0.8,0.9,1.0,13.2,56.0,1012.9,0.00,0,0.0,////,0.0,0,0.0,////,12.0,0.0,12.2,3.514
2011/02/02,04:30:01,214,214,216,1.0,1.2,1.4,13.4,55.5,1012.9,0.00,0,0.0,////,0.0,0,0.0,////,12.0,0.0,12.3,3.513
2011/02/02,04:40:01,207,209,211,1.0,1.1,1.2,13.9,54.1,1012.9,0.00,0,0.0,////,0.0,0,0.0,////,12.5,0.0,12.4,3.513
2011/02/02,04:50:01,218,221,224,1.0,1.1,1.3,13.6,54.6,1012.7,0.00,0,0.0,////,0.0,0,0.0,////,12.2,0.0,12.3,3.513
2011/02/02,05:00:01,206,206,206,1.2,1.3,1.3,13.6,55.3,1012.9,0.00,0,0.0,////,0.0,0,0.0,////,11.9,0.0,12.3,3.513
2011/02/02,05:10:01,191,197,209,1.2,1.4,1.5,13.5,54.5,1012.8,0.00,0,0.0,////,0.0,0,0.0,////,12.0,0.0,12.3,3.513
2011/02/02,05:20:01,192,194,196,1.4,1.4,1.5,13.4,55.5,1012.8,0.00,0,0.0,////,0.0,0,0.0,////,11.9,0.0,12.3,3.513
2011/02/02,05:30:01,215,221,225,1.0,1.1,1.5,13.0,56.4,1012.8,0.00,0,0.0,////,0.0,0,0.0,////,11.7,0.0,12.3,3.513
2011/02/02,05:40:01,199,202,203,0.7,0.7,0.8,13.7,53.7,1012.9,0.00,0,0.0,////,0.0,0,0.0,////,12.2,0.0,12.3,3.513
2011/02/02,05:50:01,178,184,188,1.3,1.4,1.6,13.5,54.8,1013.0,0.00,0,0.0,////,0.0,0,0.0,////,12.4,0.0,12.3,3.514
2011/02/02,06:00:01,169,172,175,0.7,0.8,0.9,13.6,54.7,1013.0,0.00,0,0.0,////,0.0,0,0.0,////,12.4,0.0,12.3,3.513
2011/02/02,06:10:01,133,145,155,0.7,0.8,0.9,13.9,54.1,1013.0,0.00,0,0.0,////,0.0,0,0.0,////,12.7,0.0,12.3,3.513
2011/02/02,06:20:01,140,143,148,1.1,1.2,1.3,14.0,53.7,1013.1,0.00,0,0.0,////,0.0,0,0.0,////,12.7,0.0,12.3,3.513
2011/02/02,06:30:01,153,159,168,1.0,1.2,1.3,14.1,54.0,1013.3,0.00,0,0.0,////,0.0,0,0.0,////,12.9,0.0,12.3,3.511
2011/02/02,06:40:01,135,149,162,0.9,1.0,1.1,14.3,54.2,1013.4,0.00,0,0.0,////,0.0,0,0.0,////,13.2,0.0,12.3,3.513
2011/02/02,06:50:01,127,130,133,1.1,1.3,1.6,14.3,54.6,1013.4,0.00,0,0.0,////,0.0,0,0.0,////,13.2,0.0,12.3,3.513
2011/02/02,07:00:01,155,161,167,0.5,0.6,0.7,14.3,54.4,1013.5,0.00,0,0.0,////,0.0,0,0.0,////,13.2,0.0,12.3,3.513
2011/02/02,07:10:01,134,151,164,1.0,1.0,1.1,14.3,54.6,1013.4,0.00,0,0.0,////,0.0,0,0.0,////,13.2,0.0,12.3,3.511
2011/02/02,07:20:01,130,135,142,1.2,1.3,1.4,14.3,55.0,1013.4,0.00,0,0.0,////,0.0,0,0.0,////,13.4,0.0,12.3,3.513
2011/02/02,07:30:01,135,139,143,0.9,1.1,1.4,14.3,55.0,1013.4,0.00,0,0.0,////,0.0,0,0.0,////,13.4,0.0,12.3,3.513
2011/02/02,07:40:01,132,135,137,0.6,0.7,0.9,14.4,54.6,1013.3,0.00,0,0.0,////,0.0,0,0.0,////,13.6,0.0,12.3,3.513
2011/02/02,07:50:01,158,164,169,0.9,1.0,1.1,14.5,54.5,1013.3,0.00,0,0.0,////,0.0,0,0.0,////,13.4,0.0,12.2,3.513
2011/02/02,08:00:01,152,169,181,1.4,1.5,1.6,14.7,54.0,1013.5,0.00,0,0.0,////,0.0,0,0.0,////,13.7,0.0,12.3,3.513
2011/02/02,08:10:01,134,136,140,0.9,1.1,1.4,14.8,54.3,1013.6,0.00,0,0.0,////,0.0,0,0.0,////,14.4,0.0,12.3,3.513
2011/02/02,08:20:01,118,135,154,0.9,1.0,1.1,14.8,56.0,1013.6,0.00,0,0.0,////,0.0,0,0.0,////,14.1,0.0,12.3,3.513
2011/02/02,08:30:01,133,135,138,1.1,1.2,1.3,15.0,55.0,1013.7,0.00,0,0.0,////,0.0,0,0.0,////,14.4,0.0,12.3,3.513
2011/02/02,08:40:01,154,159,164,0.5,0.7,0.9,15.1,54.5,1013.9,0.00,0,0.0,////,0.0,0,0.0,////,14.4,0.0,12.3,3.513
2011/02/02,08:50:01,137,146,157,0.8,1.0,1.1,15.1,55.4,1014.0,0.00,0,0.0,////,0.0,0,0.0,////,14.4,0.0,12.3,3.511
2011/02/02,09:00:01,128,131,135,1.1,1.2,1.3,15.1,55.1,1014.0,0.00,0,0.0,////,0.0,0,0.0,////,14.6,0.0,12.3,3.511
2011/02/02,09:10:01,153,156,160,1.0,1.2,1.4,15.2,54.4,1014.2,0.00,0,0.0,////,0.0,0,0.0,////,14.8,0.0,12.3,3.513
2011/02/02,09:20:01,122,125,126,0.8,0.8,0.9,15.3,55.5,1014.3,0.00,0,0.0,////,0.0,0,0.0,////,14.8,0.0,12.3,3.516
2011/02/02,09:30:01,123,128,133,0.8,0.9,0.9,15.2,55.6,1014.3,0.00,0,0.0,////,0.0,0,0.0,////,14.8,0.0,12.3,3.513
2011/02/02,09:40:01,119,121,122,1.1,1.2,1.3,15.2,56.4,1014.4,0.00,0,0.0,////,0.0,0,0.0,////,14.8,0.0,12.3,3.513
2011/02/02,09:50:01,115,119,123,0.6,0.9,1.2,15.2,56.9,1014.5,0.00,0,0.0,////,0.0,0,0.0,////,14.4,0.0,12.3,3.511
2011/02/02,10:00:01,124,130,139,0.6,1.0,1.2,15.2,57.5,1014.5,0.00,0,0.0,////,0.0,0,0.0,////,14.8,0.0,12.3,3.513
2011/02/02,10:10:01,143,154,165,0.7,0.8,1.0,15.1,60.4,1014.6,0.00,0,0.0,////,0.0,0,0.0,////,14.8,0.0,12.3,3.511
2011/02/02,10:20:01,124,129,132,0.8,1.0,1.2,15.2,58.4,1014.6,0.00,0,0.0,////,0.0,0,0.0,////,15.0,0.0,12.3,3.511
2011/02/02,10:30:01,136,154,169,0.2,0.4,0.5,15.6,57.8,1014.6,0.00,0,0.0,////,0.0,0,0.0,////,15.1,0.0,12.3,3.511
2011/02/02,10:40:01,130,135,141,1.7,1.9,2.1,15.5,58.4,1014.6,0.00,0,0.0,////,0.0,0,0.0,////,15.3,0.0,12.3,3.513